Temp
22 23 23 24 24 24 24 24 24 24 24 23 23 23 23 23 23 23 24 24 23 23 22 22 22 21 21 21 21 21 21 21 21 21 21 21 21 21 21 21 21 21 20
19 22 22 22 22 21 22 22 23 22 23 23 23 23 23 23 24 24 24 24 24 23 23 23 22 22 21 21 21 20 20 20 20 20 20 20 21 21 21 21 21 20 20
17 18 20 20 20 20 20 21 21 22 22 22 22 22 22 22 22 23 23 23 24 24 23 23 22 22 21 20 20 19 19 19 19 19 18 18 19 19 19 19 20 20 20
16 17 18 17 17 18 18 18 19 19 20 20 19 20 21 22 22 22 22 22 21 19 19 17 18 19 18 18 18 18 18 18 18 17 17 17 17 17 17 17 18 18 19
15 16 16 16 17 18 17 17 17 18 19 19 19 20 21 22 23 23 23 21 20 20 19 18 17 18 18 17 17 17 16 16 15 15 15 16 16 16 16 16 17 17 17
14 15 15 14 16 16 16 15 15 17 18 17 17 20 21 21 22 22 21 21 19 18 18 17 16 18 17 17 17 16 16 14 14 14 14 14 14 15 15 15 15 16 16
13 13 15 14 15 14 13 13 14 16 17 16 17 18 20 22 21 18 20 20 16 17 16 15 16 15 16 15 15 15 15 13 12 12 11 11 11 12 12 12 14 14 15
12 12 13 13 13 14 12 12 13 14 16 15 14 18 21 22 17 18 18 18 15 15 15 14 14 14 13 14 15 15 14 13 12 11 9 9 9 10 10 11 11 11 13
11 11 11 11 12 12 12 11 11 12 14 15 14 14 16 17 15 18 18 16 14 13 13 13 13 12 13 13 14 13 12 12 11 9 8 8 8 8 9 10 10 10 11
11 10 10 10 11 11 11 11 11 12 12 13 14 13 13 13 14 15 16 15 13 13 12 11 11 12 12 12 12 12 11 10 9 8 7 7 7 7 8 8 8 9 10
10 10 10 10 10 10 10 10 10 10 11 11 12 12 13 13 14 13 13 13 12 12 11 10 11 11 11 11 12 11 9 8 7 7 6 6 6 6 6 7 8 8 9
10 9 9 9 9 9 9 9 9 9 9 9 10 11 11 11 11 11 12 11 10 10 10 11 10 10 10 11 10 9 8 7 7 7 7 6 6 6 6 6 7 8 8
10 9 9 9 9 8 8 9 8 9 8 8 8 9 9 10 9 9 8 8 7 8 9 9 9 9 9 9 8 8 7 7 7 7 7 6 6 6 6 6 6 6 6
9 8 8 8 8 8 8 8 8 8 8 8 7 6 7 7 6 6 6 5 5 6 7 7 9 7 7 7 6 7 7 7 7 6 6 6 6 6 6 5 5 5 5
9 8 8 8 8 7 8 8 8 7 7 7 6 6 6 6 5 5 4 5 5 5 6 7 6 6 6 6 6 6 6 5 5 5 6 6 6 5 5 5 4 4 5
8 8 8 8 7 7 7 8 7 6 7 6 6 5 5 5 5 5 4 4 4 5 5 5 5 5 5 5 6 5 5 4 5 5 5 5 5 4 4 4 3 3 4
8 8 8 8 7 7 7 7 7 6 6 6 5 5 5 4 4 4 4 4 4 5 5 5 5 5 4 5 4 4 4 4 4 4 4 4 3 3 3 3 3 4 4
7 8 7 7 7 6 6 6 6 6 6 6 5 5 5 4 5 4 4 4 4 4 4 4 4 4 4 4 4 3 3 3 3 3 2 2 2 2 3 3 3 3 4
7 7 7 7 6 5 5 6 6 6 6 5 5 5 5 4 4 2 2 2 3 2 2 2 3 3 3 3 3 2 2 2 2 2 2 2 2 2 3 2 2 2 2
7 7 7 6 6 5 4 4 5 6 6 5 5 5 4 3 2 1 1 1 1 1 1 2 2 3 3 2 2 1 1 2 1 1 2 2 2 1 1 1 2 2 2
7 7 6 6 5 4 2 1 3 5 6 5 5 5 4 3 1 0 -1 -1 -0 1 1 1 1 2 1 1 0 -0 0 1 1 1 1 1 1 1 2 2 3 3 2
6 6 6 6 5 2 3 3 2 4 5 5 5 4 4 4 2 -0 -1 -0 1 1 1 1 0 0 -0 -1 -1 -1 -1 -0 1 1 0 0 1 1 1 2 3 2 1
6 6 6 5 4 1 3 2 2 3 5 5 4 4 3 3 1 -1 -1 1 2 2 1 -0 -1 -2 -2 -2 -2 -1 -1 -1 -0 0 1 0 1 1 1 1 1 2 3
6 6 5 5 5 2 3 3 3 4 5 4 4 3 2 1 -1 -3 -2 1 2 1 0 -2 -2 -2 -1 -1 -1 -1 -1 -1 -0 1 1 1 1 1 0 0 1 3 1
6 5 5 5 5 1 2 3 3 5 5 4 4 3 1 -0 -2 -3 -2 0 0 0 -2 -2 -1 -1 -0 -1 -1 -1 -1 -1 -0 1 1 0 0 -0 -0 1 2 1 1
6 6 5 4 3 2 2 2 2 3 3 4 3 3 1 -1 -2 -3 -3 -1 -1 -2 -2 -1 -1 -1 -1 -1 -1 -1 -1 -1 -1 0 1 1 0 -0 0 1 -0 1 1
Height
832 832 831 831 830 829 829 829 828 827 827 827 826 825 825 824 823 822 820 818 817 816 816 815 814 814 813 813 813 812 811 810 809 808 807 806 805 804 803 802 802 801 801
835 833 832 832 832 832 831 830 828 827 826 824 823 822 821 820 819 818 816 814 813 811 811 810 810 810 810 809 808 808 807 805 804 803 801 800 799 798 797 796 795 794 793
835 835 834 835 834 834 833 831 829 827 825 824 822 820 819 818 816 815 813 812 810 808 807 806 807 807 807 807 805 804 802 801 799 798 796 794 793 791 790 789 787 786 785
835 835 836 836 835 834 833 832 830 827 825 823 821 820 817 815 813 812 811 810 807 805 805 807 805 805 805 803 802 801 799 797 795 793 791 790 788 786 784 782 780 778 776
837 837 836 836 835 835 834 832 831 829 826 824 822 818 815 813 810 809 809 809 807 805 806 805 805 804 803 801 800 798 795 794 791 788 786 784 782 780 778 775 773 771 769
838 838 838 837 837 836 836 834 832 830 828 825 821 816 813 811 810 808 808 809 807 807 807 806 804 803 800 799 798 796 794 789 788 784 782 779 776 774 771 768 765 763 761
840 839 839 839 838 838 838 836 834 832 829 827 822 817 810 808 809 810 811 811 810 811 810 809 807 805 802 799 796 794 791 787 785 782 779 776 773 769 767 763 758 755 753
841 841 841 841 840 840 839 838 837 835 832 831 828 819 811 805 811 813 814 814 815 815 813 811 808 805 802 799 796 794 788 785 782 778 776 772 768 765 762 757 754 748 746
843 844 843 843 843 843 842 841 840 838 836 835 834 834 826 822 824 814 816 818 818 817 815 812 808 805 802 798 795 792 786 783 779 776 773 769 764 760 756 752 748 742 739
847 846 846 847 845 845 844 845 843 842 840 839 838 839 839 838 832 822 818 820 820 818 816 813 809 805 802 798 794 790 785 781 777 773 769 764 760 755 750 745 740 736 733
850 849 849 847 847 847 848 846 846 845 844 844 843 842 839 838 835 834 826 823 822 820 818 813 809 805 801 797 792 787 783 778 774 769 765 760 755 749 743 738 733 729 725
850 850 849 848 849 850 850 849 849 848 848 847 846 845 844 842 840 837 832 828 825 822 818 813 810 806 801 796 791 786 780 775 770 764 759 754 749 743 737 731 726 722 717
850 851 851 851 852 852 851 852 851 850 849 850 849 849 847 845 844 841 837 833 829 823 819 816 811 806 800 795 789 783 777 771 765 760 754 748 741 735 730 725 720 715 710
851 852 853 854 855 855 854 853 853 852 852 852 852 852 850 849 846 844 842 838 830 825 819 815 810 806 801 794 786 779 771 766 760 753 747 740 734 728 722 717 712 707 702
852 854 856 857 857 857 856 855 855 855 854 855 854 854 852 850 848 846 844 842 838 827 819 812 809 804 798 790 783 776 768 760 753 746 740 734 728 721 714 708 702 696 691
853 856 858 858 859 858 857 856 856 857 857 856 856 856 854 852 849 847 845 843 840 834 822 816 807 801 794 787 779 772 764 755 748 741 734 726 720 713 705 697 690 684 678
855 856 858 859 859 858 859 858 858 859 858 858 858 857 855 854 851 849 846 842 837 833 822 812 807 799 791 782 774 767 760 752 744 737 728 719 710 703 695 687 679 673 667
856 857 858 859 860 860 861 860 860 860 860 860 859 858 856 854 851 849 846 841 837 832 825 811 805 795 789 780 772 764 755 749 741 731 721 713 703 691 684 677 669 662 656
855 858 859 860 862 862 862 861 862 862 862 861 860 858 857 855 852 849 845 841 836 831 826 817 802 796 787 779 769 759 754 744 737 727 715 705 694 685 677 669 659 651 645
856 858 861 862 863 862 862 862 863 863 863 862 860 859 858 856 853 848 844 839 835 830 824 817 807 795 787 776 773 763 742 743 730 719 710 703 689 679 668 660 650 643 636
858 860 861 863 863 864 862 862 864 864 863 862 861 859 857 854 850 847 843 839 834 829 823 816 806 796 786 777 771 762 752 736 727 716 704 698 682 672 662 652 643 635 628
859 860 861 863 864 865 863 861 861 863 863 862 860 858 856 853 850 845 841 837 834 828 822 814 808 800 788 782 773 765 752 737 714 715 703 688 683 667 658 649 639 630 621
858 859 861 864 866 866 863 862 861 863 864 862 859 857 855 852 848 843 839 836 833 828 823 817 808 803 792 784 774 760 753 742 727 710 700 686 677 665 656 644 632 624 615
857 858 861 865 866 864 863 861 862 864 863 861 859 856 854 852 848 844 840 836 831 825 820 815 810 801 793 783 775 765 751 738 726 713 702 684 673 660 650 640 628 622 613
855 858 861 864 865 865 862 862 861 863 862 860 858 855 854 852 848 844 840 835 829 824 817 810 805 797 788 780 772 759 747 734 719 708 698 686 672 657 647 634 627 619 611
854 857 860 862 862 864 863 862 860 862 861 859 857 856 852 851 847 844 840 835 829 823 814 805 798 791 784 776 768 760 748 734 721 704 696 686 673 663 641 634 629 619 612
Wind_Speed
3 4 3 5 5 5 7 8 9 10 11 13 13 13 14 16 17 17 18 20 21 22 20 21 22 22 22 23 24 25 26 27 28 29 30 31 32 32 33 33 33 33 34
3 4 5 6 6 7 9 10 13 13 14 15 16 16 16 17 19 19 21 21 22 23 22 22 20 20 22 23 23 25 27 28 29 31 33 34 35 36 36 37 38 38 39
4 4 3 4 6 7 8 9 10 13 15 16 18 18 18 19 20 21 20 22 23 24 23 23 17 21 19 21 26 26 25 25 26 28 30 32 34 37 39 40 40 41 41
7 6 5 6 7 7 8 9 10 11 13 14 15 16 18 19 19 20 21 22 20 20 19 15 13 15 17 19 19 20 22 23 24 26 27 28 30 33 34 36 39 40 40
8 7 7 8 8 7 9 10 10 10 12 12 15 17 17 17 17 17 16 9 12 16 18 21 23 18 21 22 24 23 17 20 21 20 20 21 24 27 31 35 38 39 40
10 8 9 10 9 9 10 12 12 12 11 14 20 17 15 15 13 10 12 13 15 17 19 21 24 22 24 26 24 21 24 21 22 22 23 25 25 27 29 30 31 34 39
11 10 9 10 9 11 12 13 13 11 11 16 13 19 12 9 8 14 13 11 19 19 19 22 21 22 23 24 25 27 24 19 27 29 30 30 32 32 29 31 31 33 35
12 12 11 10 11 9 13 14 15 13 9 15 16 12 5 7 18 10 12 12 23 18 22 22 21 21 25 22 22 23 20 28 31 32 32 32 32 31 32 31 32 30 33
13 12 12 11 10 10 12 13 14 15 12 12 14 11 5 5 17 9 8 17 16 23 23 22 23 25 21 23 22 24 27 32 36 37 34 34 33 34 34 31 31 32 33
11 11 11 10 11 11 12 11 13 12 13 13 11 11 7 8 4 7 13 17 26 24 26 26 27 21 25 26 25 23 32 38 42 44 37 37 36 36 34 36 37 35 34
10 10 10 11 11 11 11 12 13 14 12 12 12 13 12 11 9 12 10 21 23 24 26 27 21 27 30 27 27 30 39 41 44 43 36 36 40 43 40 38 36 36 36
9 10 10 12 12 11 11 12 12 13 13 13 13 13 13 13 15 16 12 19 22 24 26 20 26 30 27 27 35 36 39 47 46 40 44 41 45 38 38 37 35 34 34
8 10 11 12 11 11 11 10 12 12 13 13 14 13 12 13 15 16 16 19 20 28 23 22 25 25 30 33 35 40 42 44 40 44 42 49 44 41 38 36 35 38 37
9 9 10 10 11 11 10 10 12 12 12 12 13 14 12 13 15 16 17 20 14 22 23 28 18 31 32 34 40 39 40 40 43 45 48 44 46 43 41 41 41 41 42
9 9 9 9 10 10 11 10 12 13 12 12 12 13 13 14 15 16 16 17 18 12 14 20 32 34 35 35 37 38 39 42 48 46 45 43 43 43 46 44 44 48 44
10 9 8 9 9 11 12 11 11 12 12 12 12 13 14 15 15 16 17 18 20 22 12 32 32 36 37 39 38 40 39 45 41 44 43 47 48 48 54 53 51 48 46
10 9 9 9 10 11 12 11 10 11 11 11 12 13 14 15 16 16 18 18 21 24 23 31 33 36 39 38 41 39 41 41 40 42 46 47 55 54 51 50 48 49 48
10 10 9 9 9 10 10 10 10 10 10 10 11 12 13 14 15 17 19 20 22 25 28 32 35 37 36 39 39 42 43 39 40 40 49 51 51 51 49 50 49 50 50
11 10 9 9 8 9 9 9 8 8 8 9 10 11 13 14 15 19 20 23 24 26 27 29 34 35 37 36 40 42 40 41 38 44 47 44 46 46 46 52 48 48 44
10 9 8 8 8 9 9 8 6 6 7 8 9 10 11 14 15 18 21 23 24 26 27 27 30 34 35 37 35 37 47 37 43 45 40 40 43 50 45 45 45 44 43
10 9 9 8 7 8 8 7 4 5 6 8 8 10 12 11 20 18 22 23 24 26 26 27 30 32 33 37 37 41 40 45 41 39 43 44 46 45 42 43 41 39 41
10 9 8 7 6 5 6 6 5 4 6 7 9 10 12 13 17 22 25 24 24 24 28 27 27 30 36 38 38 39 40 38 16 37 43 41 40 43 41 41 44 45 46
11 10 8 7 6 4 7 6 5 5 5 7 8 11 13 15 16 22 24 22 22 24 24 26 31 31 37 39 42 41 39 39 36 47 39 38 35 39 39 42 46 38 35
12 10 8 7 5 3 7 6 6 3 5 6 7 9 11 14 18 22 21 22 24 24 25 28 30 34 33 37 36 37 41 39 37 37 38 24 37 38 43 43 34 30 41
12 10 9 7 5 2 8 6 6 4 5 6 7 8 10 14 20 22 20 22 26 26 35 31 33 33 33 33 35 37 35 33 27 36 37 31 35 39 39 29 26 42 36
13 11 9 7 7 2 6 6 7 5 5 6 7 8 12 18 19 20 20 22 27 31 37 37 36 35 35 35 34 34 37 33 33 27 30 33 31 30 13 17 38 33 33
Wind_Direction
12 309 341 289 310 301 288 276 275 277 283 280 273 277 285 284 282 282 285 286 283 285 291 292 287 285 285 286 287 287 286 285 282 281 280 279 278 277 276 275 275 274 274
350 316 319 322 322 322 320 308 312 310 294 296 288 281 283 285 285 285 285 289 292 282 285 286 289 293 296 297 298 298 294 290 287 285 285 284 282 281 279 278 278 277 276
12 358 347 335 336 325 325 317 309 304 302 300 302 299 299 291 294 291 297 296 291 292 299 288 292 297 304 310 311 309 308 306 303 300 296 292 290 288 287 284 282 281 281
30 30 20 10 354 350 348 339 331 319 314 321 314 301 296 295 293 294 293 296 298 317 327 9 1 356 344 341 333 332 332 327 321 316 315 310 303 300 297 295 292 288 285
34 47 38 18 16 7 5 356 346 340 329 325 316 306 298 295 297 302 304 358 358 354 355 350 346 344 333 333 329 333 337 333 330 323 316 312 306 302 300 297 295 293 291
44 51 40 33 30 25 14 8 356 348 336 338 323 310 307 301 301 331 1 351 11 10 356 350 347 334 333 331 334 333 327 335 328 325 319 314 308 305 300 297 295 294 291
45 50 44 36 36 33 24 16 6 357 358 352 341 328 308 287 29 5 343 351 11 358 353 345 340 334 329 327 323 329 328 331 335 334 332 332 324 317 324 317 301 295 290
50 45 46 39 37 32 28 23 20 7 10 15 359 324 357 312 7 16 19 12 359 356 345 341 338 336 330 331 330 332 327 329 332 331 333 332 328 325 319 316 314 311 296
53 50 49 46 42 41 33 28 23 23 7 18 28 21 342 358 337 23 7 360 5 347 342 339 335 331 332 330 331 327 320 323 323 328 330 328 325 320 317 310 311 311 310
57 55 53 51 50 47 42 34 29 26 23 20 17 20 18 341 340 328 333 333 348 341 339 337 330 333 331 330 325 321 324 322 322 323 325 323 320 319 312 307 305 304 301
67 60 59 55 54 51 46 43 36 34 31 23 14 4 3 354 344 331 316 326 331 337 334 330 336 330 330 326 324 323 321 322 322 323 320 319 318 316 310 306 304 302 298
72 63 61 58 55 52 44 40 37 34 30 26 17 11 3 354 349 337 330 329 332 332 331 337 332 329 325 325 321 317 318 319 320 319 317 314 317 315 312 308 305 303 300
78 63 61 60 55 46 44 44 39 35 30 27 21 9 2 1 354 346 339 334 329 327 332 333 328 329 327 323 320 316 317 315 315 314 312 313 314 312 311 307 303 302 299
85 74 68 64 54 46 48 49 41 38 32 30 23 16 9 5 1 357 350 343 331 329 333 330 336 328 325 319 316 316 315 316 315 312 311 312 311 310 307 304 302 302 299
91 84 79 71 59 52 50 51 45 38 36 30 24 16 12 7 2 359 354 342 331 324 324 324 326 325 322 320 319 319 320 315 312 313 312 312 313 311 308 306 300 299 297
103 100 92 78 65 57 51 51 47 39 37 30 23 17 15 8 3 359 350 339 334 323 310 320 322 323 324 323 322 323 319 317 315 314 314 312 310 308 306 306 302 298 294
112 108 98 79 66 57 50 50 48 39 36 27 21 16 14 9 3 353 344 340 333 329 316 317 320 323 323 324 324 323 320 318 318 317 314 310 308 310 306 306 306 303 297
116 109 100 82 69 59 51 47 45 37 30 22 17 14 11 4 359 353 346 341 335 330 326 318 323 323 324 326 323 324 322 320 319 318 312 312 311 309 309 307 307 304 300
119 115 105 89 75 61 50 44 40 32 26 19 13 9 5 0 358 350 347 340 336 331 327 321 317 322 322 326 329 325 323 322 320 318 315 314 312 310 310 307 308 306 301
126 120 118 102 83 63 46 39 35 26 20 15 11 7 1 357 354 350 345 340 335 330 327 324 320 319 324 326 329 325 320 324 321 319 318 319 314 313 310 308 308 304 303
136 133 127 115 88 60 34 33 26 12 9 5 7 4 359 359 356 349 344 338 334 330 326 324 319 322 323 326 328 323 317 319 322 321 321 319 318 316 314 312 308 305 303
146 142 132 122 101 56 26 51 52 16 356 1 2 2 3 359 355 341 344 346 337 326 324 324 322 319 316 320 319 319 318 322 317 325 319 315 319 312 315 313 309 311 311
150 144 136 133 115 58 30 69 59 21 350 358 0 1 3 1 350 347 342 343 340 337 335 334 323 320 315 315 318 319 321 315 313 314 319 315 320 316 318 316 315 323 329
155 145 147 151 143 36 26 65 64 17 358 3 5 6 6 360 348 351 344 341 343 342 339 336 326 316 314 316 315 316 314 314 313 317 324 310 323 318 322 319 321 325 331
160 155 153 151 150 89 15 26 58 7 6 11 12 5 6 1 346 360 350 344 342 339 337 337 332 330 329 326 327 326 324 323 321 324 327 320 327 319 325 319 328 331 337
162 157 150 148 148 129 14 27 52 15 13 10 12 15 346 342 2 5 353 349 342 334 335 332 335 337 337 333 336 334 329 325 323 323 328 323 328 329 322 323 324 330 337